813  
ASUS42 KKEY 030410  
RWRKEY  
 
FLORIDA REGIONAL WEATHER ROUNDUP FOR THE FLORIDA KEYS  
NATIONAL WEATHER SERVICE KEY WEST FLORIDA  
1200 AM EDT WED SEP 03 2014  
   
..SOUTH FLORIDA AND THE KEYS
 
 
 
CITY SKY/WX TMP DP RH WIND PRES REMARKS
 
FORT MYERS PTCLDY 74 72 93 S3 30.03R  
SW REGIONAL AP PTCLDY 74 71 91 SE3 30.03S  
NAPLES CLEAR 74 72 93 E5 30.02F  
MIAMI PTCLDY 78 74 87 E5 30.01F  
WEST KENDALL CLEAR 79 72 79 SE6 30.01F  
HOMESTEAD CLEAR 80 71 74 E6 30.00F  
MARATHON CLEAR 83 72 69 E7 29.99F  
BOCA CHICA NAS PTCLDY 82 72 71 E13 30.00S  
KEY WEST INTL PTCLDY 83 73 72 E12 30.00F  
   
..INTERNATIONAL WEATHER
 
 
 
CITY SKY/WX TMP DP RH WIND PRES REMARKS
 
NASSAU BAHAMAS MOCLDY 79 72 78 S20 30.05R  
CANCUN MEXICO PTCLDY 82 77 83 E2 29.96R HX 91  
COZUMEL MEXICO PTCLDY 75 75 100 E3 29.95R  
 
ADJACENT COASTAL WATERS...  
 
STATION/POSITION TIME SKY/WX TEMP WIND PRES WAVE
 
AIR SEA DIR/SP/G HT/PER  
(UTC) (F) (DEG/KT/KT) (MB) (FT/S)  
PULASKI SHOAL LI 0400 84 120/ 12/ 13 1015.5F  
SAND KEY 0400 83 100/ 16/ 18 1015.7F  
SOMBRERO KEY 0400 83 100/ 14/ 16 1016.3F  
LONG KEY 0300 84 87 110/ 13/ 15 1017.2R  
MOLASSES REEF 0300 82 87 110/ 15/ 16 1016.4F  
FOWEY ROCKS 0400 82 86 110/ 10/ 12 1016.4F  
BUOY 42080 NOT AVBL  
 

 
 
CLICK HERE TO GO TO PREVIOUS BULLETINS.

The Nexlab FL Page Main Text Page